Wetterdaten: Sonntag, 01.04.2018
Datum Zeit Temp. A. Aussen2m Boden Feuchte A. Feuchte 2 Luftdruck Regen Wind Richtung Richtung Sonnenschein
01.04.2018 00:00 7,4 C 7,6 C 7,3 C 91 % 87 % 999,8 hPa 0,0 l/m 8,5 km/h (2 Bft) S 180 0 min
01.04.2018 00:05 7,4 C 7,6 C 7,3 C 91 % 87 % 999,8 hPa 0,0 l/m 7,3 km/h (2 Bft) SW 215 0 min
01.04.2018 00:10 7,4 C 7,6 C 7,3 C 90 % 87 % 999,8 hPa 0,0 l/m 4,8 km/h (1 Bft) SW 220 0 min
01.04.2018 00:15 7,4 C 7,6 C 7,3 C 90 % 87 % 999,8 hPa 0,0 l/m 4,8 km/h (1 Bft) S 185 0 min
01.04.2018 00:20 7,4 C 7,6 C 7,3 C 89 % 87 % 999,8 hPa 0,0 l/m 6,7 km/h (2 Bft) S-SO 165 0 min
01.04.2018 00:25 7,4 C 7,6 C 7,3 C 90 % 87 % 999,8 hPa 0,0 l/m 7,3 km/h (2 Bft) SW 230 0 min
01.04.2018 00:30 7,3 C 7,6 C 7,3 C 89 % 87 % 999,8 hPa 0,0 l/m 6,1 km/h (2 Bft) S-SW 200 0 min
01.04.2018 00:35 7,3 C 7,6 C 7,3 C 89 % 86 % 999,8 hPa 0,0 l/m 8,5 km/h (2 Bft) S 180 0 min
01.04.2018 00:40 7,4 C 7,5 C 7,3 C 89 % 86 % 999,8 hPa 0,0 l/m 6,1 km/h (2 Bft) S-SO 160 0 min
01.04.2018 00:45 7,4 C 7,5 C 7,3 C 89 % 86 % 999,8 hPa 0,0 l/m 8,5 km/h (2 Bft) S-SO 165 0 min
01.04.2018 00:50 7,3 C 7,5 C 7,3 C 90 % 86 % 999,8 hPa 0,0 l/m 8,5 km/h (2 Bft) S 180 0 min
01.04.2018 00:55 7,2 C 7,4 C 7,3 C 90 % 87 % 999,8 hPa 0,0 l/m 4,8 km/h (1 Bft) S-SO 150 0 min
01.04.2018 01:00 7,1 C 7,3 C 7,3 C 91 % 87 % 999,8 hPa 0,0 l/m 6,1 km/h (2 Bft) SW 225 0 min
01.04.2018 01:05 7,0 C 7,3 C 7,3 C 91 % 87 % 999,8 hPa 0,0 l/m 6,1 km/h (2 Bft) SW 225 0 min
01.04.2018 01:10 7,0 C 7,3 C 6,8 C 91 % 87 % 999,8 hPa 0,0 l/m 4,8 km/h (1 Bft) S-SO 165 0 min
01.04.2018 01:15 7,1 C 7,3 C 6,8 C 91 % 87 % 999,8 hPa 0,0 l/m 7,3 km/h (2 Bft) S-SW 200 0 min
01.04.2018 01:20 7,1 C 7,3 C 6,8 C 91 % 88 % 999,8 hPa 0,0 l/m 6,1 km/h (2 Bft) S-SW 195 0 min
01.04.2018 01:25 7,1 C 7,2 C 6,8 C 91 % 88 % 999,8 hPa 0,0 l/m 7,3 km/h (2 Bft) S-SW 210 0 min
01.04.2018 01:30 7,0 C 7,2 C 6,8 C 92 % 88 % 999,8 hPa 0,0 l/m 7,3 km/h (2 Bft) S-SW 205 0 min
01.04.2018 01:35 7,0 C 7,2 C 6,8 C 92 % 89 % 999,8 hPa 0,0 l/m 6,1 km/h (2 Bft) S-SW 205 0 min
01.04.2018 01:40 7,1 C 7,2 C 6,8 C 92 % 90 % 999,8 hPa 0,0 l/m 13,9 km/h (3 Bft) SW 225 0 min
01.04.2018 01:45 7,1 C 7,2 C 6,8 C 92 % 90 % 999,8 hPa 0,0 l/m 15,7 km/h (3 Bft) W-NW 295 0 min
01.04.2018 01:50 7,1 C 7,2 C 6,8 C 92 % 90 % 999,8 hPa 0,0 l/m 10,9 km/h (2 Bft) SW 220 0 min
01.04.2018 01:55 7,0 C 7,1 C 6,8 C 92 % 90 % 999,8 hPa 0,0 l/m 10,9 km/h (2 Bft) SW 230 0 min
01.04.2018 02:00 6,9 C 7,1 C 6,8 C 92 % 90 % 999,8 hPa 0,0 l/m 8,5 km/h (2 Bft) SW 220 0 min
01.04.2018 02:05 7,0 C 7,1 C 6,8 C 93 % 90 % 999,8 hPa 0,0 l/m 12,7 km/h (3 Bft) W-SW 245 0 min
01.04.2018 02:10 7,0 C 7,1 C 6,8 C 92 % 90 % 1000,8 hPa 0,0 l/m 9,7 km/h (2 Bft) S-SO 165 0 min
01.04.2018 02:15 7,0 C 7,1 C 6,8 C 93 % 90 % 1000,8 hPa 0,0 l/m 9,1 km/h (2 Bft) W-NW 290 0 min
01.04.2018 02:20 6,8 C 7,1 C 6,8 C 93 % 90 % 1000,8 hPa 0,0 l/m 8,5 km/h (2 Bft) SW 220 0 min
01.04.2018 02:25 6,8 C 7,0 C 6,8 C 93 % 90 % 1000,8 hPa 0,0 l/m 10,9 km/h (2 Bft) S-SW 200 0 min
01.04.2018 02:30 6,8 C 6,9 C 6,8 C 92 % 90 % 1000,8 hPa 0,0 l/m 9,7 km/h (2 Bft) W-NW 300 0 min
01.04.2018 02:35 6,6 C 6,8 C 6,8 C 93 % 89 % 1000,8 hPa 0,0 l/m 3,6 km/h (1 Bft) W 260 0 min
01.04.2018 02:40 6,6 C 6,7 C 6,8 C 93 % 90 % 1000,8 hPa 0,0 l/m 4,2 km/h (1 Bft) SW 230 0 min
01.04.2018 02:45 6,5 C 6,7 C 6,4 C 93 % 90 % 1000,8 hPa 0,0 l/m 2,4 km/h (1 Bft) SW 215 0 min
01.04.2018 02:50 6,5 C 6,7 C 6,4 C 93 % 90 % 1000,8 hPa 0,0 l/m 3,0 km/h (1 Bft) SW 220 0 min
01.04.2018 02:55 6,4 C 6,6 C 6,4 C 93 % 90 % 1000,8 hPa 0,0 l/m 4,2 km/h (1 Bft) SW 235 0 min
01.04.2018 03:00 6,4 C 6,6 C 6,4 C 93 % 90 % 1000,8 hPa 0,0 l/m 4,8 km/h (1 Bft) SW 215 0 min
01.04.2018 03:05 6,4 C 6,5 C 6,4 C 93 % 90 % 1000,8 hPa 0,0 l/m 5,4 km/h (2 Bft) SW 225 0 min
01.04.2018 03:10 6,4 C 6,5 C 6,4 C 93 % 90 % 1000,8 hPa 0,0 l/m 5,4 km/h (2 Bft) W-SW 245 0 min
01.04.2018 03:15 6,3 C 6,4 C 6,4 C 92 % 90 % 1000,8 hPa 0,0 l/m 4,2 km/h (1 Bft) S-SW 205 0 min
01.04.2018 03:20 6,2 C 6,3 C 6,4 C 92 % 89 % 1000,8 hPa 0,0 l/m 2,4 km/h (1 Bft) S-SW 210 0 min
01.04.2018 03:25 6,1 C 6,2 C 6,4 C 92 % 89 % 1000,8 hPa 0,0 l/m 3,0 km/h (1 Bft) S-SW 210 0 min
01.04.2018 03:30 6,0 C 6,2 C 6,4 C 92 % 89 % 1000,8 hPa 0,0 l/m 1,2 km/h (1 Bft) W-SW 240 0 min
01.04.2018 03:35 6,0 C 6,2 C 6,4 C 92 % 89 % 1000,8 hPa 0,0 l/m 2,4 km/h (1 Bft) S 185 0 min
01.04.2018 03:40 5,9 C 6,1 C 6,4 C 92 % 89 % 1000,8 hPa 0,0 l/m 1,8 km/h (1 Bft) SW 225 0 min
01.04.2018 03:45 5,8 C 6,0 C 6,4 C 92 % 89 % 1000,8 hPa 0,0 l/m 4,8 km/h (1 Bft) S-SW 200 0 min
01.04.2018 03:50 5,7 C 5,9 C 6,4 C 92 % 89 % 1000,8 hPa 0,0 l/m 3,6 km/h (1 Bft) S-SW 200 0 min
01.04.2018 03:55 5,9 C 5,9 C 6,4 C 93 % 89 % 1000,8 hPa 0,0 l/m 3,0 km/h (1 Bft) S-SO 150 0 min
01.04.2018 04:00 6,0 C 5,9 C 6,4 C 92 % 89 % 1000,8 hPa 0,0 l/m 4,8 km/h (1 Bft) S 185 0 min
01.04.2018 04:05 6,1 C 6,0 C 6,1 C 92 % 89 % 1000,8 hPa 0,0 l/m 3,6 km/h (1 Bft) S 175 0 min
01.04.2018 04:10 6,1 C 6,1 C 6,1 C 92 % 89 % 1000,8 hPa 0,0 l/m 1,2 km/h (1 Bft) O-SO 120 0 min
01.04.2018 04:15 6,1 C 6,1 C 6,1 C 92 % 89 % 1000,8 hPa 0,0 l/m 1,2 km/h (1 Bft) S-SO 165 0 min
01.04.2018 04:20 6,0 C 6,0 C 6,1 C 92 % 89 % 1000,8 hPa 0,0 l/m 1,8 km/h (1 Bft) S-SO 160 0 min
01.04.2018 04:25 6,0 C 6,0 C 6,1 C 92 % 89 % 1000,8 hPa 0,0 l/m 2,4 km/h (1 Bft) S 170 0 min
01.04.2018 04:30 6,0 C 6,1 C 6,1 C 92 % 89 % 1000,8 hPa 0,0 l/m 1,2 km/h (1 Bft) SO 140 0 min
01.04.2018 04:35 6,0 C 6,1 C 6,1 C 92 % 89 % 1000,8 hPa 0,0 l/m 1,8 km/h (1 Bft) S-SO 155 0 min
01.04.2018 04:40 5,9 C 6,1 C 6,1 C 93 % 89 % 1001,8 hPa 0,0 l/m 2,4 km/h (1 Bft) SO 140 0 min
01.04.2018 04:45 5,9 C 6,1 C 6,1 C 93 % 89 % 1001,8 hPa 0,0 l/m 1,8 km/h (1 Bft) S-SO 150 0 min
01.04.2018 04:50 5,9 C 6,1 C 6,2 C 93 % 89 % 1001,8 hPa 0,0 l/m 0,0 km/h (0 Bft) S-SO 165 0 min
01.04.2018 04:55 5,9 C 6,1 C 6,2 C 93 % 89 % 999,8 hPa 0,0 l/m 1,2 km/h (1 Bft) S 170 0 min
01.04.2018 05:00 5,9 C 6,1 C 6,2 C 93 % 89 % 999,8 hPa 0,0 l/m 2,4 km/h (1 Bft) S-SO 160 0 min
01.04.2018 05:05 5,9 C 6,1 C 6,2 C 93 % 89 % 999,8 hPa 0,0 l/m 2,4 km/h (1 Bft) S-SO 155 0 min
01.04.2018 05:10 6,0 C 6,1 C 6,2 C 93 % 89 % 1000,8 hPa 0,0 l/m 2,4 km/h (1 Bft) SW 225 0 min
01.04.2018 05:15 6,0 C 6,1 C 6,2 C 92 % 89 % 1000,8 hPa 0,0 l/m 2,4 km/h (1 Bft) S-SW 205 0 min
01.04.2018 05:20 6,0 C 6,1 C 6,2 C 92 % 90 % 1000,8 hPa 0,0 l/m 3,0 km/h (1 Bft) SW 235 0 min
01.04.2018 05:25 6,1 C 6,2 C 6,2 C 92 % 90 % 1000,8 hPa 0,3 l/m 3,0 km/h (1 Bft) W-SW 245 0 min
01.04.2018 05:30 6,1 C 6,2 C 6,2 C 92 % 91 % 1000,8 hPa 0,0 l/m 5,4 km/h (2 Bft) W-SW 245 0 min
01.04.2018 05:35 6,1 C 6,2 C 6,2 C 93 % 91 % 1000,8 hPa 0,0 l/m 8,5 km/h (2 Bft) SW 230 0 min
01.04.2018 05:40 6,1 C 6,2 C 6,2 C 93 % 91 % 1001,8 hPa 0,0 l/m 6,7 km/h (2 Bft) SW 235 0 min
01.04.2018 05:45 6,0 C 6,2 C 6,2 C 93 % 91 % 1001,8 hPa 0,3 l/m 10,9 km/h (2 Bft) SW 230 0 min
01.04.2018 05:50 6,0 C 6,2 C 6,2 C 94 % 91 % 1001,8 hPa 0,0 l/m 11,5 km/h (2 Bft) SW 230 0 min
01.04.2018 05:55 6,0 C 6,2 C 6,2 C 94 % 92 % 1000,8 hPa 0,0 l/m 6,7 km/h (2 Bft) SW 215 0 min
01.04.2018 06:00 6,1 C 6,2 C 6,2 C 94 % 92 % 1000,8 hPa 0,0 l/m 10,3 km/h (2 Bft) SW 215 0 min
01.04.2018 06:05 5,8 C 6,1 C 6,2 C 94 % 92 % 1000,8 hPa 0,0 l/m 9,7 km/h (2 Bft) S-SW 210 0 min
01.04.2018 06:10 5,8 C 6,1 C 6,2 C 94 % 91 % 1000,8 hPa 0,0 l/m 15,7 km/h (3 Bft) S 180 0 min
01.04.2018 06:15 5,8 C 6,1 C 6,2 C 93 % 91 % 1000,8 hPa 0,3 l/m 15,7 km/h (3 Bft) S-SW 205 0 min
01.04.2018 06:20 5,8 C 6,0 C 6,2 C 93 % 91 % 1000,8 hPa 0,3 l/m 13,9 km/h (3 Bft) S-SO 150 0 min
01.04.2018 06:25 5,8 C 6,0 C 6,2 C 94 % 91 % 1000,8 hPa 0,6 l/m 15,1 km/h (3 Bft) SW 235 0 min
01.04.2018 06:30 5,6 C 5,9 C 6,2 C 93 % 91 % 1000,8 hPa 1,2 l/m 10,9 km/h (2 Bft) S-SW 200 0 min
01.04.2018 06:35 5,6 C 5,8 C 6,2 C 93 % 91 % 1000,8 hPa 0,3 l/m 7,9 km/h (2 Bft) W-SW 240 0 min
01.04.2018 06:40 5,6 C 5,8 C 6,2 C 93 % 91 % 1001,8 hPa 0,3 l/m 9,1 km/h (2 Bft) S-SO 150 0 min
01.04.2018 06:45 5,7 C 5,8 C 6,2 C 94 % 91 % 1001,8 hPa 0,0 l/m 10,9 km/h (2 Bft) S-SW 210 0 min
01.04.2018 06:50 5,7 C 5,8 C 6,2 C 94 % 91 % 1001,8 hPa 0,0 l/m 8,5 km/h (2 Bft) S 175 0 min
01.04.2018 06:55 5,7 C 5,8 C 6,2 C 94 % 92 % 1002,8 hPa 0,3 l/m 12,1 km/h (2 Bft) SW 220 0 min
01.04.2018 07:00 5,7 C 5,8 C 6,2 C 94 % 92 % 1002,8 hPa 0,0 l/m 12,1 km/h (2 Bft) W-SW 250 0 min
01.04.2018 07:05 5,7 C 5,8 C 6,2 C 94 % 92 % 1002,8 hPa 0,0 l/m 7,9 km/h (2 Bft) SW 220 0 min
01.04.2018 07:10 5,7 C 5,8 C 6,2 C 95 % 92 % 1000,8 hPa 0,0 l/m 8,5 km/h (2 Bft) SW 220 0 min
01.04.2018 07:15 5,7 C 5,8 C 6,2 C 95 % 92 % 1000,8 hPa 0,0 l/m 8,5 km/h (2 Bft) SW 235 0 min
01.04.2018 07:20 5,8 C 5,9 C 6,2 C 94 % 92 % 1000,8 hPa 0,0 l/m 10,9 km/h (2 Bft) SW 220 0 min
01.04.2018 07:25 5,8 C 5,9 C 6,2 C 94 % 92 % 1002,8 hPa 0,3 l/m 7,3 km/h (2 Bft) SW 225 0 min
01.04.2018 07:30 5,8 C 6,0 C 6,2 C 94 % 93 % 1002,8 hPa 0,0 l/m 6,1 km/h (2 Bft) SW 230 0 min
01.04.2018 07:35 5,8 C 6,0 C 6,2 C 94 % 93 % 1002,8 hPa 0,0 l/m 7,3 km/h (2 Bft) SW 215 0 min
01.04.2018 07:40 5,8 C 6,0 C 6,2 C 95 % 93 % 1001,8 hPa 0,0 l/m 5,4 km/h (2 Bft) SW 235 0 min
01.04.2018 07:45 5,8 C 6,0 C 6,2 C 95 % 93 % 1001,8 hPa 0,0 l/m 6,1 km/h (2 Bft) SW 220 0 min
01.04.2018 07:50 5,8 C 6,0 C 6,2 C 95 % 93 % 1001,8 hPa 0,0 l/m 8,5 km/h (2 Bft) SW 230 0 min
01.04.2018 07:55 5,9 C 6,0 C 6,2 C 95 % 93 % 1001,8 hPa 0,3 l/m 9,7 km/h (2 Bft) SW 235 0 min
01.04.2018 08:00 5,8 C 6,0 C 6,2 C 95 % 93 % 1001,8 hPa 0,0 l/m 9,7 km/h (2 Bft) W-SW 250 0 min
01.04.2018 08:05 5,9 C 6,0 C 6,2 C 95 % 93 % 1001,8 hPa 0,0 l/m 7,9 km/h (2 Bft) S-SW 210 0 min
01.04.2018 08:10 5,9 C 6,0 C 6,2 C 95 % 93 % 1002,8 hPa 0,0 l/m 9,1 km/h (2 Bft) SW 235 0 min
01.04.2018 08:15 5,9 C 6,1 C 6,2 C 95 % 93 % 1002,8 hPa 0,0 l/m 10,3 km/h (2 Bft) SW 230 0 min
01.04.2018 08:20 5,9 C 6,1 C 6,2 C 95 % 93 % 1002,8 hPa 0,0 l/m 9,7 km/h (2 Bft) SW 235 0 min
01.04.2018 08:25 5,8 C 6,0 C 6,2 C 95 % 93 % 1001,8 hPa 0,3 l/m 7,3 km/h (2 Bft) SW 225 0 min
01.04.2018 08:30 5,8 C 6,0 C 6,2 C 95 % 93 % 1001,8 hPa 0,0 l/m 9,1 km/h (2 Bft) W-SW 250 0 min
01.04.2018 08:35 5,8 C 6,0 C 6,2 C 95 % 93 % 1001,8 hPa 0,3 l/m 6,7 km/h (2 Bft) W-SW 245 0 min
01.04.2018 08:40 5,8 C 6,0 C 6,2 C 95 % 93 % 1001,8 hPa 0,0 l/m 7,9 km/h (2 Bft) W-SW 240 0 min
01.04.2018 08:45 5,8 C 6,0 C 6,2 C 95 % 93 % 1001,8 hPa 0,0 l/m 7,3 km/h (2 Bft) SW 230 0 min
01.04.2018 08:50 5,8 C 6,0 C 6,2 C 96 % 93 % 1001,8 hPa 0,0 l/m 9,1 km/h (2 Bft) W-NW 285 0 min
01.04.2018 08:55 5,8 C 6,0 C 6,2 C 96 % 93 % 1002,8 hPa 0,3 l/m 9,7 km/h (2 Bft) W-NW 295 0 min
01.04.2018 09:00 5,8 C 5,9 C 6,2 C 95 % 93 % 1002,8 hPa 0,0 l/m 6,1 km/h (2 Bft) W 275 0 min
01.04.2018 09:05 5,7 C 5,9 C 6,2 C 95 % 93 % 1002,8 hPa 0,0 l/m 8,5 km/h (2 Bft) W 280 0 min
01.04.2018 09:10 5,7 C 5,9 C 6,2 C 95 % 92 % 1002,8 hPa 0,0 l/m 14,5 km/h (3 Bft) W 260 0 min
01.04.2018 09:15 5,7 C 5,9 C 6,2 C 95 % 92 % 1002,8 hPa 0,0 l/m 16,9 km/h (3 Bft) W 280 0 min
01.04.2018 09:20 5,7 C 5,9 C 6,2 C 94 % 92 % 1002,8 hPa 0,0 l/m 14,5 km/h (3 Bft) W-NW 285 0 min
01.04.2018 09:25 5,7 C 5,9 C 6,2 C 94 % 93 % 1003,8 hPa 0,0 l/m 10,3 km/h (2 Bft) W-NW 300 0 min
01.04.2018 09:30 5,8 C 5,9 C 6,2 C 95 % 93 % 1003,8 hPa 0,0 l/m 10,3 km/h (2 Bft) W 270 0 min
01.04.2018 09:35 5,7 C 5,9 C 6,2 C 95 % 93 % 1003,8 hPa 0,0 l/m 7,9 km/h (2 Bft) SW 230 0 min
01.04.2018 09:40 5,8 C 5,9 C 6,2 C 95 % 93 % 1003,8 hPa 0,0 l/m 12,1 km/h (2 Bft) W 270 0 min
01.04.2018 09:45 5,7 C 6,0 C 6,2 C 95 % 93 % 1003,8 hPa 0,0 l/m 13,9 km/h (3 Bft) W-NW 290 0 min
01.04.2018 09:50 5,8 C 5,9 C 6,2 C 95 % 93 % 1003,8 hPa 0,0 l/m 11,5 km/h (2 Bft) NW 305 0 min
01.04.2018 09:55 5,8 C 6,0 C 6,4 C 95 % 93 % 1003,8 hPa 0,0 l/m 9,1 km/h (2 Bft) W-SW 240 0 min
01.04.2018 10:00 5,8 C 6,1 C 6,4 C 95 % 93 % 1003,8 hPa 0,0 l/m 9,1 km/h (2 Bft) S-SW 195 0 min
01.04.2018 10:05 5,9 C 6,1 C 6,4 C 95 % 93 % 1003,8 hPa 0,0 l/m 7,9 km/h (2 Bft) NW 305 0 min
01.04.2018 10:10 5,9 C 6,1 C 6,4 C 95 % 93 % 1003,8 hPa 0,0 l/m 11,5 km/h (2 Bft) W-NW 300 0 min
01.04.2018 10:15 5,8 C 6,1 C 6,4 C 95 % 93 % 1003,8 hPa 0,0 l/m 10,3 km/h (2 Bft) W-NW 290 0 min
01.04.2018 10:20 5,8 C 6,1 C 6,4 C 95 % 93 % 1003,8 hPa 0,0 l/m 9,7 km/h (2 Bft) W 265 0 min
01.04.2018 10:25 5,9 C 6,0 C 6,4 C 95 % 93 % 1003,8 hPa 0,0 l/m 9,7 km/h (2 Bft) NW 325 0 min
01.04.2018 10:30 5,8 C 6,1 C 6,4 C 95 % 93 % 1003,8 hPa 0,0 l/m 12,7 km/h (3 Bft) NW 305 0 min
01.04.2018 10:35 5,9 C 6,1 C 6,4 C 95 % 93 % 1003,8 hPa 0,0 l/m 8,5 km/h (2 Bft) W-SW 250 0 min
01.04.2018 10:40 5,9 C 6,0 C 6,4 C 94 % 93 % 1003,8 hPa 0,0 l/m 15,7 km/h (3 Bft) W-NW 295 0 min
01.04.2018 10:45 5,8 C 6,0 C 6,2 C 95 % 92 % 1003,8 hPa 0,0 l/m 12,7 km/h (3 Bft) SW 220 0 min
01.04.2018 10:50 5,8 C 6,0 C 6,2 C 95 % 93 % 1003,8 hPa 0,0 l/m 12,1 km/h (2 Bft) W-NW 300 0 min
01.04.2018 10:55 5,8 C 5,9 C 6,2 C 95 % 93 % 1004,8 hPa 0,0 l/m 12,1 km/h (2 Bft) W-NW 300 0 min
01.04.2018 11:00 5,7 C 5,9 C 6,2 C 96 % 93 % 1004,8 hPa 0,0 l/m 13,3 km/h (3 Bft) W 270 0 min
01.04.2018 11:05 5,7 C 5,9 C 6,2 C 96 % 93 % 1004,8 hPa 0,0 l/m 12,1 km/h (2 Bft) W 270 0 min
01.04.2018 11:10 5,6 C 5,8 C 6,2 C 96 % 93 % 1003,8 hPa 0,3 l/m 9,7 km/h (2 Bft) NW 305 0 min
01.04.2018 11:15 5,7 C 5,8 C 6,2 C 96 % 94 % 1003,8 hPa 0,0 l/m 7,3 km/h (2 Bft) W 280 0 min
01.04.2018 11:20 5,8 C 5,9 C 6,2 C 96 % 94 % 1003,8 hPa 0,0 l/m 12,1 km/h (2 Bft) W 280 0 min
01.04.2018 11:25 5,8 C 5,9 C 6,2 C 96 % 94 % 1004,8 hPa 0,0 l/m 13,9 km/h (3 Bft) W-NW 285 0 min
01.04.2018 11:30 5,8 C 6,0 C 6,2 C 96 % 94 % 1004,8 hPa 0,0 l/m 13,9 km/h (3 Bft) NW 305 0 min
01.04.2018 11:35 6,0 C 6,1 C 6,6 C 96 % 94 % 1004,8 hPa 0,0 l/m 13,3 km/h (3 Bft) W-NW 295 0 min
01.04.2018 11:40 6,0 C 6,2 C 6,6 C 96 % 94 % 1004,8 hPa 0,0 l/m 13,9 km/h (3 Bft) NW 305 0 min
01.04.2018 11:45 6,2 C 6,2 C 6,6 C 96 % 94 % 1004,8 hPa 0,0 l/m 12,1 km/h (2 Bft) W 270 0 min
01.04.2018 11:50 6,2 C 6,3 C 6,6 C 96 % 93 % 1004,8 hPa 0,0 l/m 13,3 km/h (3 Bft) NW 305 0 min
01.04.2018 11:55 6,1 C 6,3 C 6,6 C 95 % 93 % 1004,8 hPa 0,0 l/m 12,1 km/h (2 Bft) W 280 0 min
01.04.2018 12:00 6,2 C 6,4 C 6,6 C 95 % 93 % 1004,8 hPa 0,0 l/m 14,5 km/h (3 Bft) W-NW 290 0 min
01.04.2018 12:05 6,2 C 6,4 C 6,6 C 95 % 93 % 1004,8 hPa 0,0 l/m 14,5 km/h (3 Bft) NW 310 0 min
01.04.2018 12:10 6,0 C 6,2 C 6,6 C 95 % 93 % 1005,8 hPa 0,3 l/m 15,7 km/h (3 Bft) W-NW 295 0 min
01.04.2018 12:15 6,0 C 6,2 C 6,6 C 95 % 93 % 1005,8 hPa 0,0 l/m 17,6 km/h (3 Bft) W 280 0 min
01.04.2018 12:20 6,1 C 6,3 C 6,6 C 95 % 93 % 1005,8 hPa 0,0 l/m 12,1 km/h (2 Bft) W 270 0 min
01.04.2018 12:25 6,1 C 6,3 C 6,6 C 95 % 93 % 1005,8 hPa 0,0 l/m 13,3 km/h (3 Bft) W-NW 300 0 min
01.04.2018 12:30 6,2 C 6,3 C 6,6 C 95 % 93 % 1005,8 hPa 0,0 l/m 16,9 km/h (3 Bft) W 265 0 min
01.04.2018 12:35 6,3 C 6,4 C 6,6 C 95 % 93 % 1005,8 hPa 0,0 l/m 11,5 km/h (2 Bft) W-NW 290 0 min
01.04.2018 12:40 6,2 C 6,4 C 6,6 C 95 % 93 % 1005,8 hPa 0,0 l/m 21,2 km/h (4 Bft) W-NW 290 0 min
01.04.2018 12:45 6,2 C 6,4 C 6,6 C 94 % 92 % 1005,8 hPa 0,0 l/m 17,6 km/h (3 Bft) W 265 0 min
01.04.2018 12:50 6,5 C 6,6 C 6,6 C 93 % 92 % 1005,8 hPa 0,0 l/m 15,7 km/h (3 Bft) NW 310 0 min
01.04.2018 12:55 6,4 C 6,6 C 6,6 C 93 % 91 % 1005,8 hPa 0,0 l/m 14,5 km/h (3 Bft) W-NW 295 0 min
01.04.2018 13:00 6,4 C 6,6 C 6,6 C 93 % 90 % 1005,8 hPa 0,0 l/m 19,4 km/h (3 Bft) W 275 0 min
01.04.2018 13:05 6,4 C 6,5 C 6,6 C 92 % 90 % 1005,8 hPa 0,0 l/m 19,4 km/h (3 Bft) NW 310 0 min
01.04.2018 13:10 6,5 C 6,7 C 6,6 C 92 % 91 % 1006,8 hPa 0,0 l/m 14,5 km/h (3 Bft) NW 305 0 min
01.04.2018 13:15 6,4 C 6,6 C 6,6 C 92 % 90 % 1006,8 hPa 0,0 l/m 16,3 km/h (3 Bft) N-NW 335 0 min
01.04.2018 13:20 6,3 C 6,6 C 6,6 C 92 % 90 % 1006,8 hPa 0,0 l/m 20,6 km/h (4 Bft) SW 225 0 min
01.04.2018 13:25 6,5 C 6,6 C 6,6 C 92 % 90 % 1006,8 hPa 0,0 l/m 12,1 km/h (2 Bft) W-NW 295 0 min
01.04.2018 13:30 6,6 C 6,7 C 6,6 C 92 % 90 % 1006,8 hPa 0,0 l/m 16,9 km/h (3 Bft) W 275 0 min
01.04.2018 13:35 6,7 C 6,7 C 7,0 C 91 % 90 % 1006,8 hPa 0,0 l/m 11,5 km/h (2 Bft) W-NW 295 3 min
01.04.2018 13:40 7,1 C 6,9 C 7,0 C 91 % 91 % 1005,8 hPa 0,0 l/m 10,3 km/h (2 Bft) W-NW 300 2 min
01.04.2018 13:45 7,5 C 7,1 C 7,9 C 91 % 91 % 1005,8 hPa 0,0 l/m 10,9 km/h (2 Bft) W 280 5 min
01.04.2018 13:50 7,9 C 7,5 C 7,9 C 89 % 90 % 1005,8 hPa 0,0 l/m 8,5 km/h (2 Bft) NO 40 4 min
01.04.2018 13:55 7,8 C 7,5 C 7,9 C 88 % 88 % 1006,8 hPa 0,0 l/m 19,4 km/h (3 Bft) N-NW 335 0 min
01.04.2018 14:00 7,5 C 7,6 C 7,7 C 87 % 87 % 1006,8 hPa 0,0 l/m 24,8 km/h (4 Bft) NW 305 0 min
01.04.2018 14:05 7,4 C 7,5 C 7,7 C 86 % 86 % 1006,8 hPa 0,0 l/m 21,2 km/h (4 Bft) NW 310 0 min
01.04.2018 14:10 7,3 C 7,6 C 7,7 C 87 % 87 % 1006,8 hPa 0,0 l/m 18,2 km/h (3 Bft) W-NW 295 0 min
01.04.2018 14:15 7,4 C 7,6 C 7,7 C 87 % 87 % 1006,8 hPa 0,0 l/m 19,4 km/h (3 Bft) W 280 0 min
01.04.2018 14:20 7,4 C 7,6 C 7,5 C 88 % 87 % 1006,8 hPa 0,0 l/m 10,9 km/h (2 Bft) W-NW 300 0 min
01.04.2018 14:25 7,5 C 7,6 C 7,5 C 86 % 86 % 1007,8 hPa 0,0 l/m 9,7 km/h (2 Bft) W-NW 290 3 min
01.04.2018 14:30 7,8 C 7,8 C 7,9 C 86 % 86 % 1007,8 hPa 0,0 l/m 10,9 km/h (2 Bft) SW 235 5 min
01.04.2018 14:35 7,8 C 7,8 C 7,9 C 86 % 86 % 1007,8 hPa 0,0 l/m 11,5 km/h (2 Bft) W-NW 285 2 min
01.04.2018 14:40 7,7 C 7,8 C 7,9 C 85 % 85 % 1005,8 hPa 0,0 l/m 9,7 km/h (2 Bft) NW 305 0 min
01.04.2018 14:45 7,7 C 7,8 C 7,9 C 85 % 85 % 1005,8 hPa 0,0 l/m 13,3 km/h (3 Bft) W-NW 285 0 min
01.04.2018 14:50 7,6 C 7,8 C 7,7 C 85 % 85 % 1005,8 hPa 0,0 l/m 13,3 km/h (3 Bft) W-NW 300 0 min
01.04.2018 14:55 7,6 C 7,8 C 7,5 C 85 % 85 % 1006,8 hPa 0,0 l/m 13,3 km/h (3 Bft) W-NW 300 0 min
01.04.2018 15:00 7,7 C 7,8 C 7,5 C 86 % 85 % 1006,8 hPa 0,0 l/m 9,7 km/h (2 Bft) SO 145 0 min
01.04.2018 15:05 7,7 C 7,8 C 7,5 C 85 % 85 % 1006,8 hPa 0,0 l/m 6,1 km/h (2 Bft) W 270 0 min
01.04.2018 15:10 7,8 C 7,9 C 7,7 C 85 % 85 % 1006,8 hPa 0,0 l/m 6,1 km/h (2 Bft) W 265 0 min
01.04.2018 15:15 7,8 C 8,0 C 7,9 C 85 % 84 % 1006,8 hPa 0,0 l/m 6,1 km/h (2 Bft) W 265 0 min
01.04.2018 15:20 7,8 C 8,0 C 7,9 C 85 % 83 % 1006,8 hPa 0,0 l/m 6,1 km/h (2 Bft) W 265 0 min
01.04.2018 15:25 7,8 C 8,1 C 8,0 C 85 % 84 % 1007,8 hPa 0,0 l/m 6,1 km/h (2 Bft) W 265 0 min
01.04.2018 15:30 7,8 C 8,0 C 8,0 C 85 % 82 % 1007,8 hPa 0,0 l/m 6,1 km/h (2 Bft) W 265 0 min
01.04.2018 15:35 7,8 C 8,0 C 7,9 C 85 % 82 % 1007,8 hPa 0,0 l/m 6,1 km/h (2 Bft) W 265 0 min
01.04.2018 15:40 7,8 C 8,0 C 7,9 C 85 % 82 % 1006,8 hPa 0,0 l/m 6,1 km/h (2 Bft) W 265 0 min
01.04.2018 15:45 7,8 C 8,0 C 7,9 C 85 % 85 % 1006,8 hPa 0,0 l/m 6,1 km/h (2 Bft) W 265 0 min
01.04.2018 15:50 7,8 C 8,0 C 7,7 C 85 % 86 % 1006,8 hPa 0,0 l/m 6,1 km/h (2 Bft) W 265 0 min
01.04.2018 15:55 7,5 C 7,8 C 7,7 C 88 % 86 % 1007,8 hPa 0,3 l/m 9,1 km/h (2 Bft) W-NW 300 0 min
01.04.2018 16:00 7,2 C 7,6 C 7,7 C 88 % 87 % 1007,8 hPa 0,3 l/m 5,4 km/h (2 Bft) W-SW 250 0 min
01.04.2018 16:05 7,0 C 7,4 C 7,7 C 89 % 86 % 1007,8 hPa 0,0 l/m 5,4 km/h (2 Bft) NW 310 0 min
01.04.2018 16:10 6,8 C 7,3 C 7,7 C 88 % 86 % 1007,8 hPa 0,0 l/m 7,3 km/h (2 Bft) W 265 0 min
01.04.2018 16:15 7,0 C 7,2 C 7,7 C 88 % 87 % 1007,8 hPa 0,0 l/m 6,1 km/h (2 Bft) W-NW 300 0 min
01.04.2018 16:20 7,0 C 7,2 C 7,7 C 89 % 88 % 1007,8 hPa 0,0 l/m 5,4 km/h (2 Bft) W 270 0 min
01.04.2018 16:25 7,0 C 7,3 C 7,7 C 90 % 89 % 1007,8 hPa 0,0 l/m 4,8 km/h (1 Bft) W-NW 290 0 min
01.04.2018 16:30 7,0 C 7,2 C 7,7 C 90 % 89 % 1007,8 hPa 0,3 l/m 4,2 km/h (1 Bft) SW 235 0 min
01.04.2018 16:35 6,8 C 7,1 C 7,7 C 90 % 89 % 1007,8 hPa 0,0 l/m 7,3 km/h (2 Bft) W-NW 300 0 min
01.04.2018 16:40 6,8 C 7,1 C 7,7 C 91 % 90 % 1007,8 hPa 0,0 l/m 6,7 km/h (2 Bft) S-SW 205 0 min
01.04.2018 16:45 6,7 C 7,1 C 7,7 C 91 % 90 % 1007,8 hPa 0,0 l/m 6,7 km/h (2 Bft) W-NW 295 0 min
01.04.2018 16:50 6,8 C 7,0 C 7,7 C 92 % 90 % 1007,8 hPa 0,0 l/m 3,6 km/h (1 Bft) W 265 0 min
01.04.2018 16:55 6,8 C 7,1 C 7,7 C 92 % 91 % 1008,8 hPa 0,0 l/m 5,4 km/h (2 Bft) NW 305 0 min
01.04.2018 17:00 6,8 C 7,0 C 7,7 C 93 % 91 % 1008,8 hPa 0,0 l/m 5,4 km/h (2 Bft) W-NW 290 0 min
01.04.2018 17:05 6,7 C 7,0 C 7,7 C 93 % 91 % 1008,8 hPa 0,0 l/m 11,5 km/h (2 Bft) W 260 0 min
01.04.2018 17:10 6,5 C 6,9 C 7,7 C 94 % 92 % 1007,8 hPa 0,0 l/m 13,9 km/h (3 Bft) NW 310 0 min
01.04.2018 17:15 6,3 C 6,7 C 7,7 C 94 % 92 % 1007,8 hPa 0,3 l/m 26,7 km/h (4 Bft) W 265 0 min
01.04.2018 17:20 6,0 C 6,5 C 7,7 C 94 % 92 % 1007,8 hPa 0,0 l/m 16,3 km/h (3 Bft) NW 320 0 min
01.04.2018 17:25 6,0 C 6,3 C 7,7 C 95 % 92 % 1008,8 hPa 0,0 l/m 16,9 km/h (3 Bft) N-NW 335 0 min
01.04.2018 17:30 5,9 C 6,3 C 7,7 C 95 % 93 % 1008,8 hPa 0,0 l/m 12,1 km/h (2 Bft) W 270 0 min
01.04.2018 17:35 6,0 C 6,3 C 7,7 C 95 % 93 % 1008,8 hPa 0,3 l/m 26,0 km/h (4 Bft) SW 230 0 min
01.04.2018 17:40 6,1 C 6,3 C 7,7 C 96 % 93 % 1008,8 hPa 0,0 l/m 14,5 km/h (3 Bft) N-NW 335 0 min
01.04.2018 17:45 6,0 C 6,2 C 7,7 C 96 % 93 % 1008,8 hPa 0,0 l/m 17,6 km/h (3 Bft) W-NW 300 0 min
01.04.2018 17:50 5,8 C 6,2 C 7,7 C 96 % 93 % 1008,8 hPa 0,0 l/m 16,3 km/h (3 Bft) NW 325 0 min
01.04.2018 17:55 5,8 C 6,1 C 7,7 C 96 % 93 % 1008,8 hPa 0,0 l/m 16,9 km/h (3 Bft) W-NW 290 0 min
01.04.2018 18:00 5,7 C 6,1 C 7,7 C 96 % 93 % 1008,8 hPa 0,0 l/m 14,5 km/h (3 Bft) W-NW 290 0 min
01.04.2018 18:05 5,8 C 6,0 C 7,7 C 96 % 94 % 1008,8 hPa 0,3 l/m 16,3 km/h (3 Bft) W-NW 285 0 min
01.04.2018 18:10 5,8 C 6,1 C 7,7 C 97 % 94 % 1009,8 hPa 0,0 l/m 15,7 km/h (3 Bft) NW 305 0 min
01.04.2018 18:15 5,8 C 6,1 C 7,7 C 97 % 94 % 1009,8 hPa 0,0 l/m 19,4 km/h (3 Bft) W-NW 295 0 min
01.04.2018 18:20 5,9 C 6,0 C 7,7 C 97 % 94 % 1009,8 hPa 0,0 l/m 18,2 km/h (3 Bft) W 265 0 min
01.04.2018 18:25 5,8 C 6,0 C 7,7 C 96 % 94 % 1009,8 hPa 0,0 l/m 16,9 km/h (3 Bft) W-NW 300 0 min
01.04.2018 18:30 5,9 C 6,0 C 7,7 C 96 % 94 % 1009,8 hPa 0,0 l/m 15,7 km/h (3 Bft) W-NW 300 0 min
01.04.2018 18:35 5,7 C 6,0 C 7,7 C 96 % 93 % 1009,8 hPa 0,0 l/m 18,2 km/h (3 Bft) N-NW 330 0 min
01.04.2018 18:40 5,8 C 6,0 C 7,7 C 96 % 93 % 1009,8 hPa 0,0 l/m 18,2 km/h (3 Bft) W-NW 285 0 min
01.04.2018 18:45 5,8 C 6,0 C 7,7 C 96 % 93 % 1009,8 hPa 0,0 l/m 20,6 km/h (4 Bft) W-NW 295 0 min
01.04.2018 18:50 5,8 C 6,0 C 7,7 C 96 % 93 % 1009,8 hPa 0,0 l/m 20,6 km/h (4 Bft) NW 310 0 min
01.04.2018 18:55 5,8 C 6,0 C 7,7 C 95 % 93 % 1008,8 hPa 0,0 l/m 16,9 km/h (3 Bft) W-NW 295 0 min
01.04.2018 19:00 5,8 C 6,0 C 7,7 C 95 % 93 % 1008,8 hPa 0,0 l/m 13,9 km/h (3 Bft) W-NW 290 0 min
01.04.2018 19:05 5,8 C 6,0 C 7,7 C 95 % 93 % 1008,8 hPa 0,0 l/m 18,2 km/h (3 Bft) W-NW 300 0 min
01.04.2018 19:10 5,8 C 6,0 C 7,7 C 95 % 93 % 1008,8 hPa 0,0 l/m 18,2 km/h (3 Bft) W-SW 245 0 min
01.04.2018 19:15 5,8 C 6,0 C 7,7 C 95 % 93 % 1008,8 hPa 0,0 l/m 15,1 km/h (3 Bft) W 275 0 min
01.04.2018 19:20 5,8 C 6,0 C 7,7 C 95 % 93 % 1008,8 hPa 0,0 l/m 19,4 km/h (3 Bft) W 265 0 min
01.04.2018 19:25 5,9 C 6,0 C 6,2 C 95 % 93 % 1009,8 hPa 0,0 l/m 17,6 km/h (3 Bft) NW 315 0 min
01.04.2018 19:30 5,9 C 6,0 C 6,2 C 95 % 93 % 1009,8 hPa 0,0 l/m 14,5 km/h (3 Bft) W-NW 300 0 min
01.04.2018 19:35 5,9 C 6,0 C 6,2 C 95 % 93 % 1009,8 hPa 0,0 l/m 16,9 km/h (3 Bft) W 275 0 min
01.04.2018 19:40 5,9 C 6,0 C 6,2 C 95 % 93 % 1009,8 hPa 0,0 l/m 13,3 km/h (3 Bft) NW 310 0 min
01.04.2018 19:45 5,9 C 6,0 C 6,2 C 95 % 93 % 1009,8 hPa 0,0 l/m 12,1 km/h (2 Bft) W 275 0 min
01.04.2018 19:50 5,9 C 6,0 C 6,2 C 95 % 93 % 1009,8 hPa 0,0 l/m 14,5 km/h (3 Bft) W-SW 250 0 min
01.04.2018 19:55 5,9 C 6,0 C 6,2 C 95 % 93 % 1010,8 hPa 0,0 l/m 15,7 km/h (3 Bft) W 275 0 min
01.04.2018 20:00 5,8 C 6,0 C 6,2 C 95 % 93 % 1010,8 hPa 0,0 l/m 13,9 km/h (3 Bft) SW 225 0 min
01.04.2018 20:05 5,9 C 6,0 C 6,2 C 95 % 93 % 1010,8 hPa 0,0 l/m 9,7 km/h (2 Bft) NW 325 0 min
01.04.2018 20:10 5,9 C 6,0 C 6,1 C 95 % 93 % 1009,8 hPa 0,0 l/m 6,1 km/h (2 Bft) SW 230 0 min
01.04.2018 20:15 5,8 C 5,9 C 6,1 C 95 % 93 % 1009,8 hPa 0,0 l/m 10,3 km/h (2 Bft) W-NW 290 0 min
01.04.2018 20:20 5,8 C 5,9 C 6,1 C 94 % 93 % 1009,8 hPa 0,0 l/m 7,9 km/h (2 Bft) NW 305 0 min
01.04.2018 20:25 5,8 C 5,9 C 6,1 C 94 % 92 % 1009,8 hPa 0,0 l/m 6,7 km/h (2 Bft) NW 315 0 min
01.04.2018 20:30 5,8 C 5,9 C 6,1 C 94 % 92 % 1009,8 hPa 0,0 l/m 6,7 km/h (2 Bft) W-NW 295 0 min
01.04.2018 20:35 5,8 C 5,9 C 6,1 C 94 % 92 % 1009,8 hPa 0,0 l/m 9,1 km/h (2 Bft) NW 310 0 min
01.04.2018 20:40 5,8 C 5,9 C 6,1 C 94 % 92 % 1010,8 hPa 0,0 l/m 9,1 km/h (2 Bft) NW 305 0 min
01.04.2018 20:45 5,8 C 5,8 C 6,1 C 94 % 92 % 1010,8 hPa 0,0 l/m 7,3 km/h (2 Bft) W-NW 300 0 min
01.04.2018 20:50 5,8 C 5,8 C 6,1 C 94 % 92 % 1010,8 hPa 0,0 l/m 8,5 km/h (2 Bft) NW 310 0 min
01.04.2018 20:55 5,8 C 5,9 C 6,1 C 94 % 92 % 1010,8 hPa 0,0 l/m 7,3 km/h (2 Bft) W-NW 300 0 min
01.04.2018 21:00 5,8 C 5,9 C 6,1 C 94 % 92 % 1010,8 hPa 0,0 l/m 8,5 km/h (2 Bft) S 170 0 min
01.04.2018 21:05 5,8 C 5,9 C 6,1 C 94 % 92 % 1010,8 hPa 0,0 l/m 9,1 km/h (2 Bft) W-NW 285 0 min
01.04.2018 21:10 5,8 C 5,9 C 6,1 C 94 % 92 % 1009,8 hPa 0,0 l/m 6,1 km/h (2 Bft) SW 215 0 min
01.04.2018 21:15 5,8 C 5,9 C 6,1 C 94 % 92 % 1009,8 hPa 0,0 l/m 10,3 km/h (2 Bft) NW 320 0 min
01.04.2018 21:20 5,8 C 5,9 C 6,1 C 94 % 92 % 1009,8 hPa 0,0 l/m 6,1 km/h (2 Bft) W 270 0 min
01.04.2018 21:25 5,8 C 5,9 C 6,1 C 94 % 92 % 1011,8 hPa 0,0 l/m 3,6 km/h (1 Bft) W 275 0 min
01.04.2018 21:30 5,8 C 5,9 C 6,1 C 94 % 92 % 1011,8 hPa 0,0 l/m 4,2 km/h (1 Bft) NW 305 0 min
01.04.2018 21:35 5,8 C 5,9 C 6,1 C 94 % 92 % 1011,8 hPa 0,0 l/m 5,4 km/h (2 Bft) W-SW 245 0 min
01.04.2018 21:40 5,8 C 5,9 C 6,1 C 94 % 92 % 1010,8 hPa 0,0 l/m 3,6 km/h (1 Bft) W-SW 240 0 min
01.04.2018 21:45 5,8 C 5,9 C 6,1 C 94 % 92 % 1010,8 hPa 0,0 l/m 4,2 km/h (1 Bft) NW 305 0 min
01.04.2018 21:50 5,8 C 5,9 C 6,1 C 94 % 92 % 1010,8 hPa 0,0 l/m 7,3 km/h (2 Bft) W-NW 295 0 min
01.04.2018 21:55 5,8 C 5,9 C 6,1 C 94 % 92 % 1010,8 hPa 0,0 l/m 13,3 km/h (3 Bft) SO 135 0 min
01.04.2018 22:00 5,9 C 5,9 C 6,1 C 94 % 92 % 1010,8 hPa 0,0 l/m 15,7 km/h (3 Bft) S-SW 195 0 min
01.04.2018 22:05 5,9 C 6,0 C 6,1 C 93 % 92 % 1010,8 hPa 0,0 l/m 14,5 km/h (3 Bft) W 270 0 min
01.04.2018 22:10 5,9 C 5,9 C 6,1 C 93 % 92 % 1010,8 hPa 0,0 l/m 12,1 km/h (2 Bft) NW 310 0 min
01.04.2018 22:15 5,8 C 5,9 C 5,9 C 93 % 91 % 1010,8 hPa 0,0 l/m 21,2 km/h (4 Bft) W-NW 285 0 min
01.04.2018 22:20 5,8 C 5,8 C 5,9 C 92 % 90 % 1010,8 hPa 0,0 l/m 14,5 km/h (3 Bft) W-NW 285 0 min
01.04.2018 22:25 5,6 C 5,8 C 5,9 C 92 % 90 % 1011,8 hPa 0,0 l/m 14,5 km/h (3 Bft) W-NW 295 0 min
01.04.2018 22:30 5,6 C 5,8 C 5,9 C 91 % 90 % 1011,8 hPa 0,0 l/m 18,8 km/h (3 Bft) W-NW 300 0 min
01.04.2018 22:35 5,6 C 5,7 C 5,9 C 91 % 89 % 1011,8 hPa 0,0 l/m 14,5 km/h (3 Bft) W-NW 295 0 min
01.04.2018 22:40 5,6 C 5,7 C 5,9 C 91 % 90 % 1011,8 hPa 0,0 l/m 9,1 km/h (2 Bft) W-NW 285 0 min
01.04.2018 22:45 5,6 C 5,7 C 5,9 C 92 % 90 % 1011,8 hPa 0,0 l/m 11,5 km/h (2 Bft) W-NW 290 0 min
01.04.2018 22:50 5,6 C 5,7 C 5,9 C 92 % 90 % 1011,8 hPa 0,0 l/m 8,5 km/h (2 Bft) W-NW 295 0 min
01.04.2018 22:55 5,6 C 5,7 C 5,9 C 92 % 90 % 1010,8 hPa 0,0 l/m 6,1 km/h (2 Bft) W-NW 300 0 min
01.04.2018 23:00 5,6 C 5,7 C 5,9 C 93 % 91 % 1010,8 hPa 0,0 l/m 6,7 km/h (2 Bft) W-NW 285 0 min
01.04.2018 23:05 5,6 C 5,7 C 5,9 C 93 % 91 % 1010,8 hPa 0,0 l/m 6,1 km/h (2 Bft) W-SW 255 0 min
01.04.2018 23:10 5,6 C 5,7 C 5,9 C 93 % 91 % 1011,8 hPa 0,0 l/m 4,8 km/h (1 Bft) W 265 0 min
01.04.2018 23:15 5,6 C 5,7 C 5,9 C 93 % 91 % 1011,8 hPa 0,0 l/m 3,6 km/h (1 Bft) W 275 0 min
01.04.2018 23:20 5,5 C 5,7 C 5,9 C 93 % 91 % 1011,8 hPa 0,0 l/m 3,6 km/h (1 Bft) W 280 0 min
01.04.2018 23:25 5,5 C 5,6 C 5,9 C 93 % 92 % 1010,8 hPa 0,0 l/m 4,8 km/h (1 Bft) S-SO 165 0 min
01.04.2018 23:30 5,5 C 5,6 C 5,9 C 94 % 92 % 1010,8 hPa 0,0 l/m 2,4 km/h (1 Bft) SW 230 0 min
01.04.2018 23:35 5,5 C 5,6 C 5,7 C 94 % 92 % 1010,8 hPa 0,0 l/m 4,2 km/h (1 Bft) S-SW 210 0 min
01.04.2018 23:40 5,5 C 5,6 C 5,7 C 94 % 92 % 1011,8 hPa 0,0 l/m 6,7 km/h (2 Bft) W-SW 255 0 min
01.04.2018 23:45 5,5 C 5,6 C 5,7 C 94 % 92 % 1011,8 hPa 0,0 l/m 4,2 km/h (1 Bft) W-NW 285 0 min
01.04.2018 23:50 5,4 C 5,6 C 5,7 C 94 % 92 % 1011,8 hPa 0,0 l/m 3,0 km/h (1 Bft) W-NW 285 0 min
01.04.2018 23:55 5,4 C 5,5 C 5,7 C 94 % 92 % 1011,8 hPa 0,0 l/m 4,8 km/h (1 Bft) W-SW 245 0 min
_ Min-Zeit 23:50 23:55 23:35 14:40 15:30 00:00 - 04:50 - - -
Minimum _ 5,4 C 5,5 C 5,7 C 85 % 82 % 999,8 hPa - 0,0 km/h (0 Bft) - - -
_ Max-Zeit 13:50 15:25 15:25 18:10 11:15 23:55 06:30 17:15 - - 13:45
Maximum _ 7,9 C 8,1 C 8,0 C 97 % 94 % 1011,8 hPa 1,2 l/m 26,7 km/h
W (4 Bft)
- - 5 min
Durchschnitt _ 6,2 C 6,4 C 6,7 C 93 % 91 % 1005,2 hPa #7,7 l/m 9,9 km/h (2 Bft) W-NW - #24 min.